This is the latest recevied weather packets stored in our database for station/object N7MLR. If no packets are shown the sender has not sent any weather packets the latest 10 day(s).
| Time | Temp. | Humidity | Pressure | Rain* | Wind** | Luminosity | Snow |
|---|---|---|---|---|---|---|---|
| 1777766469 | 21.67° C | 42% | 1019.6 hPa | 0 mm | - | 30 W/m² | - |
| 1777766166 | 21.67° C | 42% | 1019.9 hPa | 0 mm | - | 31 W/m² | - |
| 1777765864 | 21.67° C | 43% | 1019.6 hPa | 0 mm | - | 33 W/m² | - |
| 1777765559 | 21.67° C | 42% | 1019.4 hPa | 0 mm | - | 35 W/m² | - |
| 1777765258 | 22.22° C | 44% | 1019.6 hPa | 0 mm | - | 35 W/m² | - |
| 1777764958 | 22.22° C | 43% | 1019.6 hPa | 0 mm | - | 37 W/m² | - |
| 1777764655 | 22.22° C | 43% | 1019.5 hPa | 0 mm | - | 38 W/m² | - |
| 1777764351 | 21.67° C | 42% | 1019.5 hPa | 0 mm | - | 39 W/m² | - |
| 1777764049 | 22.22° C | 42% | 1019.4 hPa | 0 mm | - | 39 W/m² | - |
| 1777763745 | 22.78° C | 44% | 1019.4 hPa | 0 mm | - | 40 W/m² | - |
| 1777763443 | 22.78° C | 44% | 1019.6 hPa | 0 mm | - | 42 W/m² | - |
| 1777763141 | 22.22° C | 41% | 1019.5 hPa | 0 mm | - | 44 W/m² | - |
| 1777762839 | 22.78° C | 44% | 1019.6 hPa | 0 mm | - | 45 W/m² | - |
| 1777762534 | 22.22° C | 42% | 1019.4 hPa | 0 mm | - | 181 W/m² | - |
| 1777762232 | 22.22° C | 43% | 1019.3 hPa | 0 mm | - | 56 W/m² | - |
| 1777761928 | 22.22° C | 41% | 1019.5 hPa | 0 mm | - | 131 W/m² | - |
| 1777761625 | 22.22° C | 41% | 1019.2 hPa | 0 mm | - | 48 W/m² | - |
| 1777761323 | 22.78° C | 40% | 1019.3 hPa | 0 mm | - | 141 W/m² | - |
| 1777761021 | 22.78° C | 42% | 1019.4 hPa | 0 mm | - | 85 W/m² | - |
| 1777760718 | 22.22° C | 43% | 1019.2 hPa | 0 mm | - | 65 W/m² | - |
| 1777760414 | 22.78° C | 42% | 1019.2 hPa | 0 mm | - | 54 W/m² | - |
| 1777760110 | 22.78° C | 43% | 1019.3 hPa | 0 mm | - | 108 W/m² | - |
| 1777759808 | 23.33° C | 44% | 1019.3 hPa | 0 mm | - | 65 W/m² | - |
| 1777759503 | 22.78° C | 41% | 1019.4 hPa | 0 mm | - | 155 W/m² | - |
| 1777759200 | 22.78° C | 41% | 1019.3 hPa | 0 mm | - | 66 W/m² | - |
* Rain latest hour (hover to see other rain measurements)
** Current wind speed in m/s (hover to see current wind gust speed)